Other Public Products
Issued by NWS Charleston, SC

Current Version | Previous Version | Graphics & Text | Print | Product List | Glossary On
Versions: 1 2 3 4 5 6 7 8 9 10 11 12 13 14 15 16 17 18 19 20 21 22 23 24 25 26 27 28 29 30 31 32 33 34 35 36 37 38 39 40 41 42 43 44 45 46 47 48 49 50
000
FPUS82 KCHS 210027
OPUCHS

TEST...KCHS/KSAV Gateway Observations...TEST
National Weather Service Charleston SC
700 PM EST TUE FEB 20 2018

NOTE: "fair" indicates few or no clouds below 12,000 feet with no
significant weather and/or obstructions to visibility.

SCZ050-WAZ558-NCZ071-TXZ119-213-PAZ071-DCZ001-FLZ074-172-MI076-
NYZ176-178-MAZ016-IL014-TNZ027-NJZ106-GAZ044-MD014-210100-

...Gateway Observations for Charleston International...

CITY           SKY/WX    TMP DP  RH WIND       PRES   REMARKS
Chas Airport   FAIR      70  65  84 S6        30.41S
6HR MIN TEMP:  70; 6HR MAX TEMP:  82;

Seattle        LGT SNOW  34  27  75 N14       30.18R WCI  25
6HR MIN TEMP:  32; 6HR MAX TEMP:  36; 6HR PCP: TRACE;

Charlotte      MOCLDY    68  58  70 W3        30.41R
6HR MIN TEMP:  67; 6HR MAX TEMP:  75;

Dallas DFW     RAIN      45  43  93 N18       29.97R FOG
6HR MIN TEMP:  46; 6HR MAX TEMP:  73; 6HR PCP:  1.17;

Dallas Love    HVY RAIN  46  45  96 N13G26    29.99R FOG
6HR MIN TEMP:  48; 6HR MAX TEMP:  71; 6HR PCP:  1.47;

Philladelphia  MOCLDY    66  55  67 S8        30.33R
6HR MIN TEMP:  63; 6HR MAX TEMP:  72;

Wash National  MOCLDY    68  54  60 S14       30.31R
6HR MIN TEMP:  66; 6HR MAX TEMP:  78;

Baltimore      FAIR      64  58  80 SE5       30.31R
6HR MIN TEMP:  64; 6HR MAX TEMP:  76;

Miami          MOCLDY    78  72  81 E18       30.30R
6HR MIN TEMP:  77; 6HR MAX TEMP:  84;

Detroit        CLOUDY    60  58  92 S12G20    29.98F
6HR MIN TEMP:  59; 6HR MAX TEMP:  63; 6HR PCP:  0.19;

Newark         MOCLDY    66  55  67 SE3       30.30R
6HR MIN TEMP:  62; 6HR MAX TEMP:  69;

Laguardia      MOCLDY    61  51  70 S5        30.31R
6HR MIN TEMP:  59; 6HR MAX TEMP:  70;

J F K          MOCLDY    49  48  97 SE5       30.33R
6HR MIN TEMP:  49; 6HR MAX TEMP:  64;

Boston Logan   FAIR      48  45  89 E7        30.25R
6HR MIN TEMP:  45; 6HR MAX TEMP:  70;

Ft. Lauderdale FAIR      77  73  87 E16       30.30R
6HR MIN TEMP:  77; 6HR MAX TEMP:  82;

Chicago O`Hare LGT RAIN  39  35  86 W12       30.02R WCI  32
6HR MIN TEMP:  41; 6HR MAX TEMP:  66; 6HR PCP:  0.50;

Chicago Midway LGT RAIN  46  45  96 W14       29.98R
6HR MIN TEMP:  46; 6HR MAX TEMP:  66; 6HR PCP:  0.54;

Houston Bush   MOCLDY    77  69  76 S16       29.99R
6HR MIN TEMP:  77; 6HR MAX TEMP:  80; 6HR PCP: TRACE;

Houston Hobby  CLOUDY    74  72  93 S12G23    30.00R
6HR MIN TEMP:  75; 6HR MAX TEMP:  77;

Nashville      FAIR      73  59  61 S10       30.18S
6HR MIN TEMP:  73; 6HR MAX TEMP:  80;

Atlanta        MOCLDY    72  63  73 SE6       30.34R
6HR MIN TEMP:  70; 6HR MAX TEMP:  75;


$$

GAZ044-118-TXZ119-213-NCZ071-DCZ001-MDZ014-506-PAZ021-071-NJZ106-
NYZ176-178-MAZ106-OHZ011-021-055-MIZ076-KYZ091-ILZ014-INZ047-
MNZ060-ONZ431-210100-

...Gateway Observations for Savannah International...

CITY           SKY/WX    TMP DP  RH WIND       PRES   REMARKS
Savannah Arpt  FAIR      71  67  87 SE10      30.39R
6HR MIN TEMP:  71; 6HR MAX TEMP:  82; 6HR PCP:  0.03;

Atlanta        MOCLDY    72  63  73 SE6       30.34R
6HR MIN TEMP:  70; 6HR MAX TEMP:  75;

Charlotte      MOCLDY    68  58  70 W3        30.41R
6HR MIN TEMP:  67; 6HR MAX TEMP:  75;

Dallas DFW     RAIN      45  43  93 N18       29.97R FOG
6HR MIN TEMP:  46; 6HR MAX TEMP:  73; 6HR PCP:  1.17;

Houston Bush   MOCLDY    77  69  76 S16       29.99R
6HR MIN TEMP:  77; 6HR MAX TEMP:  80; 6HR PCP: TRACE;

Wash National  MOCLDY    68  54  60 S14       30.31R
6HR MIN TEMP:  66; 6HR MAX TEMP:  78;

Wash Dulles    MOCLDY    70  54  56 S13       30.30R
6HR MIN TEMP:  69; 6HR MAX TEMP:  77;

Baltimore      FAIR      64  58  80 SE5       30.31R
6HR MIN TEMP:  64; 6HR MAX TEMP:  76;

Philadelphia   MOCLDY    66  55  67 S8        30.33R
6HR MIN TEMP:  63; 6HR MAX TEMP:  72;

Newark         MOCLDY    66  55  67 SE3       30.30R
6HR MIN TEMP:  62; 6HR MAX TEMP:  69;

Laguardia      MOCLDY    61  51  70 S5        30.31R
6HR MIN TEMP:  59; 6HR MAX TEMP:  70;

J F K          MOCLDY    49  48  97 SE5       30.33R
6HR MIN TEMP:  49; 6HR MAX TEMP:  64;

Boston         FAIR      48  45  89 E7        30.25R
6HR MIN TEMP:  45; 6HR MAX TEMP:  70;

Pittsburg      CLOUDY    72  51  47 SW7       30.19R
6HR MIN TEMP:  72; 6HR MAX TEMP:  78;

Akron          MOCLDY    68  53  58 S10       30.14R
6HR MIN TEMP:  66; 6HR MAX TEMP:  74;

Cleveland      MOCLDY    72  54  53 S12       30.10S
6HR MIN TEMP:  65; 6HR MAX TEMP:  73; 6HR PCP:  0.02;

Cincinnati     MOCLDY    73  56  54 S13G21    30.12S
6HR MIN TEMP:  73; 6HR MAX TEMP:  79;

Columbus       FAIR      67  55  63 S10       30.14S
Detroit        CLOUDY    60  58  92 S12G20    29.98F
6HR MIN TEMP:  59; 6HR MAX TEMP:  63; 6HR PCP:  0.19;

Chicago O`Hare LGT RAIN  39  35  86 W12       30.02R WCI  32
6HR MIN TEMP:  41; 6HR MAX TEMP:  66; 6HR PCP:  0.50;

Minneapolis    FAIR      18   9  68 W13       30.15R WCI   5
6HR MIN TEMP:  18; 6HR MAX TEMP:  21;

Indianapolis   CLOUDY    71  53  52 S17       30.04R
6HR MIN TEMP:  71; 6HR MAX TEMP:  77;

Toronto Canada NOT AVBL

$$




USA.gov is the U.S. government's official web portal to all federal, state and local government web resources and services.